Starlink 32212

operational
NORAD ID: 60256 Int'l Des: 2024-131 Owner: SPXS Country: US Constellation: starlink
LEOCIRCULAR

About Starlink 32212

Description loading...

Live Position

Loading 3D Globe...

Upcoming Passes

Altitude History

Altitude vs Time

uPlot chart will show altitude changes over time

Two-Line Element Set

1 60256U 24131B 25349.68699103 .00001117 00000-0 49822-4 0 9994
2 60256 53.1609 82.8981 0000948 85.0690 275.0419 15.30195554 78854
Epoch: Dec 15, 2025 • Age: 28 hours

Current Status

Altitude 494.2 km
Velocity 7.62 km/s
Sub-Earth Point -52.67°S, 54.71°W
Launch Date Jul 27, 2024
Age 1.3 years
Type internet

Technical Details

Classification Payload
Mass 730.00 kg
Dry Mass 700.00 kg
Total Mass 730.00 kg
Length 0.30 m
Diameter 4.10 m
Span 29.00 m
Shape Box + pan
Manufacturer SPXS
Bus Type Starlink V2M
Phase Status In Orbit
Owner/State SPXS/US

Large Constellations

Loading constellations...